EW7376 Weather Reports


time (UTC)temp
C
wind
direction
speed
KPH
gust
KPH
rain 1hr
cm
rain 24hr
cm
rain mn
cm
humidity
%
barometer
mb
20260506113009 10 346 0.0 0.0 0.00 0.00 0.00 75 1013.6
20260506111505 10 330 0.0 0.0 0.00 0.00 0.00 76 1013.4
20260506110004 10 321 0.0 0.0 0.00 0.00 0.00 77 1013.4
20260506104554 10 17 0.0 0.0 0.00 0.00 0.00 77 1013.0
20260506103043 10 360 0.0 0.0 0.00 0.00 0.00 77 1013.0
20260506101538 10 335 0.0 0.0 0.00 0.00 0.00 78 1012.7
20260506100032 10 311 0.0 0.0 0.00 0.00 0.00 79 1012.7
20260506094529 10 323 0.0 0.0 0.00 0.00 0.00 81 1012.7
20260506093026 10 306 0.0 0.0 0.00 0.00 0.00 81 1012.6
20260506091524 10 315 0.0 0.0 0.00 0.00 0.00 82 1012.4
20260506090022 10 360 0.0 0.0 0.00 0.00 0.00 82 1012.0
20260506084529 10 348 0.0 0.0 0.00 0.00 0.00 82 1011.9
20260506083018 10 318 0.0 0.0 0.00 0.00 0.00 82 1011.5
20260506081505 10 329 0.0 0.0 0.00 0.00 0.00 83 1011.2
20260506073003 10 336 0.0 0.0 0.00 0.00 0.00 83 1010.8
20260506071502 10 314 0.0 0.0 0.00 0.00 0.00 83 1011.2
20260506061548 10 325 0.0 0.0 0.00 0.00 0.00 82 1010.5
20260506044536 11 360 0.0 0.0 0.00 0.00 0.00 78 1010.9
20260506043036 11 43 0.0 0.0 0.00 0.00 0.00 78 1010.9
20260506041516 11 32 0.0 0.0 0.00 0.00 0.00 78 1010.9
20260506040032 11 308 0.0 0.0 0.00 0.00 0.00 79 1010.9
20260506034601 11 343 0.0 0.0 0.00 0.00 0.00 80 1010.6
20260506033058 11 328 0.0 0.0 0.00 0.00 0.00 80 1010.3
20260506031556 12 335 0.0 0.0 0.00 0.00 0.00 80 1009.8
20260506030057 12 340 0.0 0.0 0.00 0.00 0.00 79 1009.6
20260506024557 12 316 0.0 0.0 0.00 0.00 0.00 79 1009.7
20260506023057 12 319 0.0 0.0 0.00 0.00 0.00 80 1009.5
20260506021555 12 355 0.0 0.0 0.00 0.00 0.00 81 1008.9
20260506020048 12 321 0.0 0.0 0.00 0.00 0.00 81 1008.5
20260506014545 12 336 0.0 0.0 0.00 0.00 0.00 81 1008.3
20260506013040 12 319 0.0 0.0 0.00 0.00 0.00 81 1007.8
20260506011543 13 322 0.0 0.0 0.00 0.00 0.00 82 1007.5
20260506010050 13 296 0.0 0.0 0.00 0.00 0.00 83 1007.7
20260506004546 13 306 0.0 0.0 0.00 0.00 0.00 83 1007.3
20260506003035 13 318 0.0 0.0 0.00 0.00 0.00 83 1007.3
20260506001515 14 309 0.0 0.0 0.00 0.00 0.00 83 1007.1
20260506000013 14 325 0.0 0.0 0.00 0.00 0.00 82 1007.1
20260505234529 15 318 0.0 0.0 0.00 0.00 0.00 82 1006.6
20260505233008 15 321 0.0 0.0 0.00 0.00 0.00 81 1006.7
20260505231503 15 313 0.0 0.0 0.00 0.00 0.00 81 1006.8
20260505224557 16 322 0.0 0.0 0.00 0.00 0.00 80 1006.5
20260505223052 17 306 0.0 0.0 0.00 0.00 0.00 78 1006.2
20260505221536 18 309 0.0 0.0 0.00 0.00 0.00 77 1005.8
20260505220033 18 283 0.0 0.0 0.00 0.00 0.00 77 1005.5
20260505214557 18 300 0.0 0.0 0.00 0.00 0.00 76 1005.3
20260505213030 18 278 0.0 0.0 0.00 0.00 0.00 76 1005.1
20260505211531 18 333 0.0 0.0 0.00 0.00 0.00 76 1004.9
20260505210023 20 309 0.0 0.0 0.00 0.00 0.00 75 1004.9
20260505204520 20 292 0.0 0.0 0.00 0.00 0.00 74 1004.9
20260505203031 21 314 0.0 0.0 0.00 0.00 0.00 75 1004.5
20260505201618 21 267 0.0 0.0 0.00 0.00 0.00 74 1004.6
20260505200106 22 265 0.0 0.0 0.00 0.00 0.00 73 1004.6
20260505194606 22 290 0.0 0.0 0.00 0.00 0.00 72 1004.5
20260505193049 23 286 0.0 0.0 0.00 0.00 0.00 71 1004.3
20260505191542 23 270 0.0 0.0 0.00 0.00 0.00 68 1003.8
20260505190040 25 300 0.0 0.0 0.00 0.00 0.00 64 1003.4
20260505184537 26 264 0.0 0.0 0.00 0.00 0.00 49 1003.1
20260505183037 26 231 0.0 0.0 0.00 0.00 0.00 44 1003.3
20260505181534 26 215 0.0 0.0 0.00 0.00 0.00 54 1003.3
20260505180055 26 292 0.0 0.0 0.00 0.00 0.00 59 1003.3
20260505174549 26 252 0.0 0.0 0.00 0.00 0.00 60 1002.2
20260505173022 26 202 0.0 0.0 0.00 0.00 0.00 61 1002.1
20260505171522 26 219 0.0 0.0 0.00 0.00 0.00 62 1002.3
20260505170014 25 213 0.0 0.0 0.00 0.00 0.00 63 1002.4
20260505164515 26 227 0.0 0.0 0.00 0.00 0.00 62 1002.5
20260505163013 25 211 0.0 0.0 0.00 0.00 0.00 71 1001.8
20260505161504 24 212 0.0 0.0 0.00 0.00 0.00 75 1001.9
20260505153046 23 215 0.0 0.0 0.00 0.00 0.00 76 1001.4
20260505151543 23 197 0.0 0.0 0.00 0.00 0.00 77 1001.4
20260505124511 20 145 0.0 0.0 0.00 0.00 0.00 86 1001.1
20260505123011 20 146 0.0 0.0 0.00 0.00 0.00 85 1001.2
20260505121510 20 140 0.0 0.0 0.00 0.00 0.00 84 1000.9
20260505120015 20 123 0.0 0.0 0.00 0.00 0.00 83 1000.7
20260505114508 21 169 0.0 0.0 0.00 0.00 0.00 82 1000.5